Baudette, MN

7:25 AM CDT on October 18, 2017 (GMT -0500)
Baudette International

Weather History for KBDE - February, 2014

Change the Weather History Date:

Sunday, February 16, 2014

  Actual Average Record
Temperature  
Mean Temperature 0 °F -  
Max Temperature 19 °F 20 °F 51 °F (1981)
Min Temperature -20 °F -3 °F -38 °F (1989)
Degree Days  
Heating Degree Days 66    
Moisture  
Dew Point -2 °F    
Average Humidity 73    
Maximum Humidity 91    
Minimum Humidity 54    
Precipitation  
Precipitation 0.01 in - - ()
Sea Level Pressure  
Sea Level Pressure 30.09 in    
Wind  
Wind Speed 5 mph (SE)    
Max Wind Speed 14 mph    
Max Gust Speed 22 mph    
Visibility 8 miles    
Events Snow    
Averages and records for this station are not official NWS values.
T = Trace of Precipitation, MM = Missing Value Source: NWS Daily Summary

Daily Weather History Graph

Daily Weather History Graph

Search for Another Location

Airport or City:

Trip Planner

Search our weather history database for the weather conditions in past years. The results will help you decide how hot, cold, wet, or windy it might be!

Date:

Astronomy

Feb. 16, 2014 Rise Set
Actual Time 7:24 AM CST 5:41 PM CST
Civil Twilight 6:52 AM CST 6:13 PM CST
Nautical Twilight 6:15 AM CST 6:50 PM CST
Astronomical Twilight 5:38 AM CST 7:26 PM CST
Moon 7:52 PM CST (2/16) 7:43 AM CST (2/16)
Length of Visible Light 11h 21m
Length of Day
10h 16m
Full, 97% of the Moon is Illuminated
Feb 16
Full
Feb 22
Last Quarter
Mar 1
New
Mar 8
First Quarter
Mar 16
Full

Hourly Weather History & Observations

Time (CST) Temp. Windchill Dew Point Humidity Pressure Visibility Wind Dir Wind Speed Gust Speed Precip Events Conditions
12:53 AM -7.1 °F - -9.0 °F 91% 30.24 in 10.0 mi Calm Calm - N/A   Clear
1:53 AM -9.0 °F -18.2 °F -11.0 °F 91% 30.23 in 10.0 mi NE 3.5 mph - N/A   Clear
2:53 AM -16.1 °F -26.2 °F -18.9 °F 87% 30.24 in 10.0 mi ENE 3.5 mph - N/A   Clear
3:53 AM -20.0 °F - -25.1 °F 78% 30.26 in 10.0 mi Calm Calm - N/A   Clear
4:53 AM -18.9 °F - -24.0 °F 78% 30.27 in 10.0 mi Calm Calm - N/A   Clear
5:53 AM -20.9 °F - -26.0 °F 77% 30.27 in 10.0 mi Calm Calm - N/A   Clear
6:53 AM -20.9 °F -31.7 °F -26.0 °F 77% 30.27 in 10.0 mi ESE 3.5 mph - N/A   Clear
7:53 AM -13.0 °F -22.7 °F -18.0 °F 78% 30.26 in 10.0 mi SE 3.5 mph - N/A   Clear
8:53 AM -8.0 °F - -11.0 °F 86% 30.27 in 10.0 mi Calm Calm - N/A   Clear
9:53 AM -2.9 °F -15.0 °F -8.0 °F 79% 30.25 in 10.0 mi ESE 5.8 mph - N/A   Clear
10:53 AM 3.9 °F -8.2 °F -2.0 °F 76% 30.23 in 10.0 mi ESE 6.9 mph - N/A   Clear
11:53 AM 10.0 °F -1.9 °F 1.0 °F 67% 30.19 in 10.0 mi SE 8.1 mph - N/A   Clear
12:53 PM 14.0 °F 0.5 °F 1.9 °F 59% 30.17 in 10.0 mi South 11.5 mph - N/A   Clear
1:53 PM 16.0 °F 5.3 °F 3.0 °F 57% 30.13 in 10.0 mi SSE 8.1 mph - N/A   Clear
2:53 PM 18.0 °F 7.7 °F 3.9 °F 54% 30.10 in 10.0 mi SE 8.1 mph 16.1 mph N/A   Clear
3:53 PM 19.0 °F 8.2 °F 5.0 °F 54% 30.08 in 10.0 mi SSE 9.2 mph - N/A   Clear
4:53 PM 18.0 °F 5.4 °F 5.0 °F 57% 30.07 in 10.0 mi SE 11.5 mph 21.9 mph N/A   Clear
5:53 PM 18.0 °F 6.1 °F 5.0 °F 57% 30.08 in 10.0 mi SE 10.4 mph - N/A   Clear
6:53 PM 17.1 °F 3.0 °F 5.0 °F 59% 30.06 in 10.0 mi SE 13.8 mph 20.7 mph N/A   Clear
7:53 PM 16.0 °F 3.6 °F 5.0 °F 62% 30.03 in 10.0 mi SE 10.4 mph 19.6 mph N/A   Overcast
8:53 PM 15.1 °F 1.8 °F 6.1 °F 68% 30.01 in 10.0 mi SE 11.5 mph 20.7 mph N/A   Overcast
9:53 PM 15.1 °F 2.5 °F 6.1 °F 68% 29.99 in 10.0 mi SE 10.4 mph 20.7 mph N/A   Overcast
10:48 PM 15.8 °F 2.7 °F 8.6 °F 73% 29.88 in 1.8 mi SSE 11.5 mph 21.9 mph 0.00 in Snow Light Snow
10:50 PM 15.8 °F 3.4 °F 8.6 °F 73% 29.88 in 1.2 mi SSE 10.4 mph 20.7 mph 0.00 in Snow Light Snow
10:53 PM 15.1 °F 1.8 °F 9.0 °F 77% 29.96 in 1.0 mi SE 11.5 mph 20.7 mph 0.00 in Snow Light Snow
11:19 PM 15.1 °F 2.5 °F 10.9 °F 84% 29.87 in 1.2 mi SE 10.4 mph 19.6 mph 0.00 in Snow Light Snow
11:30 PM 15.1 °F 3.3 °F 10.9 °F 84% 29.87 in 1.8 mi SE 9.2 mph 17.3 mph 0.01 in Snow Light Snow
11:38 PM 15.1 °F 2.5 °F 10.9 °F 84% 29.87 in 3.0 mi SE 10.4 mph - 0.01 in Snow Light Snow
11:46 PM 15.1 °F 4.2 °F 10.9 °F 84% 29.87 in 7.0 mi SSE 8.1 mph 18.4 mph 0.01 in Snow Light Snow
11:53 PM 15.1 °F 2.5 °F 10.9 °F 84% 29.94 in 9.0 mi SE 10.4 mph 16.1 mph 0.01 in   Overcast